{"data":{"norad_id":63965,"intl_designator":"2025-099P","name":"STARLINK-34147","alt_names":[],"object_type":"PAYLOAD","status":"ACTIVE","operator":null,"country":"US","launch_date":"2025-05-13","launch_site_code":"AFETR","launch_vehicle":null,"mission":null,"orbit_class":"UNKNOWN","rcs_meters":null,"size_class":null,"mass_kg":null,"dimensions":null,"purposes":["comms"],"wikipedia_slug":null,"has_3d_model":false,"image_url":null,"decayed_at":null,"tle_current":{"epoch":"2026-05-25T03:50:47.476608Z","epoch_age_seconds":51426,"freshness":"FRESH","line1":"1 63965U 25099P   26145.16027172  .00018371  00000+0  67523-3 0  9993","line2":"2 63965  43.0008 104.1636 0001275 258.8095 101.2613 15.27589984 59038","mean_motion":15.27589984,"eccentricity":0.0001275,"inclination_deg":43.0008,"raan_deg":104.1636,"arg_perigee_deg":258.8095,"mean_anomaly_deg":101.2613,"bstar":0.00067523,"rev_number":5903,"period_min":94.266132606431,"perigee_km":482.14440309919,"apogee_km":483.89399793032,"semimajor_km":6861.1562005148,"source":"CELESTRAK","updated_at":"2026-05-25T13:38:20.213517Z"}}}